Williams, AZ

3:23 AM MST on September 25, 2017 (GMT -0700)
Williams

Weather History for KCMR - January, 2014

Change the Weather History Date:

Monday, January 27, 2014

  Actual Average (K40G) Record (K40G)
Temperature  
Mean Temperature 38 °F -  
Max Temperature 53 °F 46 °F 55 °F (1998)
Min Temperature 24 °F 33 °F 32 °F (1997)
Degree Days  
Heating Degree Days 26    
Moisture  
Dew Point 2 °F    
Average Humidity 28    
Maximum Humidity 50    
Minimum Humidity 8    
Precipitation  
Precipitation 0.00 in - - ()
Sea Level Pressure  
Sea Level Pressure 30.15 in    
Wind  
Wind Speed 7 mph (SE)    
Max Wind Speed 14 mph    
Max Gust Speed 20 mph    
Visibility 10 miles    
Events      
Averages and records for this station are not official NWS values.
T = Trace of Precipitation, MM = Missing Value Source: NWS Daily Summary

Daily Weather History Graph

Daily Weather History Graph

Search for Another Location

Airport or City:

Trip Planner

Search our weather history database for the weather conditions in past years. The results will help you decide how hot, cold, wet, or windy it might be!

Date:

Astronomy

Jan. 27, 2014 Rise Set
Actual Time 7:31 AM MST 5:51 PM MST
Civil Twilight 7:04 AM MST 6:18 PM MST
Nautical Twilight 6:33 AM MST 6:49 PM MST
Astronomical Twilight 6:03 AM MST 7:19 PM MST
Moon 4:15 AM MST (1/27) 2:43 PM MST (1/27)
Length of Visible Light 11h 14m
Length of Day
10h 20m
Waning Crescent, 14% of the Moon is Illuminated
Jan 27
Waning Crescent
Jan 30
New
Feb 6
First Quarter
Feb 14
Full
Feb 22
Last Quarter

Hourly Weather History & Observations

Time (MST) Temp. Windchill Dew Point Humidity Pressure Visibility Wind Dir Wind Speed Gust Speed Precip Events Conditions
12:15 AM 26.6 °F 18.2 °F 5.0 °F 40% 30.14 in 10.0 mi SE 8.1 mph - N/A   Clear
12:35 AM 26.6 °F 19.1 °F 5.0 °F 40% 30.14 in 10.0 mi SSE 6.9 mph - N/A   Clear
12:55 AM 26.6 °F 19.1 °F 5.0 °F 40% 30.14 in 10.0 mi SE 6.9 mph - N/A   Clear
1:15 AM 28.4 °F 21.2 °F 5.0 °F 37% 30.13 in 10.0 mi SE 6.9 mph - N/A   Clear
1:35 AM 28.4 °F 20.4 °F 5.0 °F 37% 30.13 in 10.0 mi SE 8.1 mph - N/A   Clear
1:55 AM 28.4 °F 21.2 °F 5.0 °F 37% 30.13 in 10.0 mi SE 6.9 mph - N/A   Clear
2:15 AM 28.4 °F 21.2 °F 5.0 °F 37% 30.13 in 10.0 mi SE 6.9 mph - N/A   Clear
2:35 AM 28.4 °F 22.2 °F 6.8 °F 40% 30.13 in 10.0 mi SSE 5.8 mph - N/A   Clear
2:55 AM 28.4 °F 21.2 °F 6.8 °F 40% 30.12 in 10.0 mi SE 6.9 mph - N/A   Clear
3:15 AM 28.4 °F 21.2 °F 6.8 °F 40% 30.12 in 10.0 mi SE 6.9 mph - N/A   Clear
3:35 AM 28.4 °F 22.2 °F 8.6 °F 43% 30.12 in 10.0 mi SE 5.8 mph - N/A   Clear
3:55 AM 28.4 °F 22.2 °F 6.8 °F 40% 30.11 in 10.0 mi SE 5.8 mph - N/A   Clear
4:15 AM 28.4 °F 23.3 °F 6.8 °F 40% 30.12 in 10.0 mi SE 4.6 mph - N/A   Mostly Cloudy
4:35 AM 28.4 °F 21.2 °F 8.6 °F 43% 30.11 in 10.0 mi SE 6.9 mph - N/A   Overcast
4:55 AM 28.4 °F 21.2 °F 8.6 °F 43% 30.12 in 10.0 mi SE 6.9 mph - N/A   Mostly Cloudy
5:15 AM 28.4 °F 21.2 °F 6.8 °F 40% 30.11 in 10.0 mi SSE 6.9 mph - N/A   Partly Cloudy
5:35 AM 28.4 °F 21.2 °F 6.8 °F 40% 30.11 in 10.0 mi SE 6.9 mph - N/A   Clear
5:55 AM 28.4 °F 23.3 °F 8.6 °F 43% 30.12 in 10.0 mi SE 4.6 mph - N/A   Partly Cloudy
6:15 AM 28.4 °F 21.2 °F 8.6 °F 43% 30.12 in 10.0 mi SE 6.9 mph - N/A   Partly Cloudy
6:35 AM 26.6 °F 20.0 °F 8.6 °F 47% 30.13 in 10.0 mi SE 5.8 mph - N/A   Partly Cloudy
6:55 AM 24.8 °F 16.1 °F 8.6 °F 50% 30.12 in 10.0 mi SE 8.1 mph - N/A   Clear
7:15 AM 24.8 °F 16.9 °F 8.6 °F 50% 30.13 in 10.0 mi SSE 6.9 mph - N/A   Clear
7:35 AM 26.6 °F 18.2 °F 6.8 °F 43% 30.13 in 10.0 mi SE 8.1 mph - N/A   Clear
7:55 AM 24.8 °F 16.9 °F 8.6 °F 50% 30.13 in 10.0 mi SE 6.9 mph - N/A   Clear
8:15 AM 26.6 °F 19.1 °F 8.6 °F 47% 30.13 in 10.0 mi SE 6.9 mph - N/A   Clear
8:35 AM 26.6 °F 20.0 °F 8.6 °F 47% 30.15 in 10.0 mi SE 5.8 mph - N/A   Clear
8:55 AM 30.2 °F 25.4 °F 6.8 °F 37% 30.16 in 10.0 mi SE 4.6 mph - N/A   Clear
9:15 AM 32.0 °F 28.7 °F 6.8 °F 35% 30.17 in 10.0 mi SE 3.5 mph - N/A   Clear
9:35 AM 33.8 °F 30.8 °F 8.6 °F 35% 30.18 in 10.0 mi SE 3.5 mph - N/A   Clear
9:55 AM 37.4 °F - 6.8 °F 28% 30.18 in 10.0 mi Calm Calm - N/A   Clear
10:15 AM 44.6 °F 43.1 °F -4.0 °F 13% 30.19 in 10.0 mi WNW 3.5 mph - N/A   Clear
10:35 AM 44.6 °F 41.4 °F -4.0 °F 13% 30.19 in 10.0 mi NNW 5.8 mph - N/A   Clear
10:55 AM 46.4 °F 42.9 °F -5.8 °F 11% 30.19 in 10.0 mi NW 6.9 mph - N/A   Clear
11:15 AM 46.4 °F 44.3 °F -7.6 °F 10% 30.19 in 10.0 mi NNW 4.6 mph - N/A   Clear
11:35 AM 48.2 °F - -7.6 °F 10% 30.18 in 10.0 mi WNW 4.6 mph - N/A   Clear
11:55 AM 48.2 °F - -5.8 °F 10% 30.18 in 10.0 mi NW 5.8 mph - N/A   Clear
12:15 PM 50.0 °F - -4.0 °F 11% 30.17 in 10.0 mi NW 9.2 mph - N/A   Clear
12:35 PM 51.8 °F - -4.0 °F 10% 30.16 in 10.0 mi WNW 13.8 mph 17.3 mph N/A   Clear
12:55 PM 50.0 °F - -5.8 °F 10% 30.15 in 10.0 mi WNW 13.8 mph - N/A   Clear
1:15 PM 51.8 °F - -4.0 °F 10% 30.14 in 10.0 mi West 9.2 mph - N/A   Clear
1:35 PM 51.8 °F - -2.2 °F 11% 30.13 in 10.0 mi WNW 11.5 mph 16.1 mph N/A   Clear
1:55 PM 51.8 °F - -4.0 °F 10% 30.12 in 10.0 mi WNW 10.4 mph - N/A   Clear
2:15 PM 53.6 °F - -4.0 °F 9% 30.12 in 10.0 mi West 10.4 mph 16.1 mph N/A   Clear
2:35 PM 53.6 °F - -5.8 °F 9% 30.12 in 10.0 mi NW 13.8 mph 19.6 mph N/A   Clear
2:55 PM 53.6 °F - -4.0 °F 9% 30.12 in 10.0 mi NW 13.8 mph - N/A   Clear
3:15 PM 53.6 °F - -7.6 °F 8% 30.12 in 10.0 mi NNW 6.9 mph 16.1 mph N/A   Clear
3:35 PM 53.6 °F - -4.0 °F 9% 30.11 in 10.0 mi NNW 8.1 mph 16.1 mph N/A   Clear
3:55 PM 53.6 °F - -4.0 °F 9% 30.11 in 10.0 mi NNW 11.5 mph - N/A   Clear
4:15 PM 51.8 °F - -4.0 °F 10% 30.11 in 10.0 mi NNW 8.1 mph - N/A   Clear
4:35 PM 51.8 °F - -4.0 °F 10% 30.11 in 10.0 mi NNW 8.1 mph - N/A   Clear
4:55 PM 50.0 °F - -4.0 °F 11% 30.12 in 10.0 mi North 10.4 mph - N/A   Clear
5:15 PM 50.0 °F - -7.6 °F 9% 30.13 in 10.0 mi NW 6.9 mph - N/A   Clear
5:35 PM 46.4 °F 42.9 °F -5.8 °F 11% 30.13 in 10.0 mi NW 6.9 mph - N/A   Clear
5:55 PM 42.8 °F 38.6 °F -7.6 °F 12% 30.15 in 10.0 mi NW 6.9 mph - N/A   Clear
6:15 PM 41.0 °F 39.0 °F -7.6 °F 13% 30.15 in 10.0 mi North 3.5 mph - N/A   Clear
6:35 PM 39.2 °F - -5.8 °F 15% 30.16 in 10.0 mi Calm Calm - N/A   Clear
6:55 PM 41.0 °F - -5.8 °F 14% 30.16 in 10.0 mi Calm Calm - N/A   Clear
7:15 PM 35.6 °F - -2.2 °F 20% 30.17 in 10.0 mi Calm Calm - N/A   Clear
7:35 PM 35.6 °F - -2.2 °F 20% 30.17 in 10.0 mi Calm Calm - N/A   Clear
7:55 PM 30.2 °F - -0.4 °F 27% 30.17 in 10.0 mi Calm Calm - N/A   Clear
8:15 PM 28.4 °F 24.6 °F 1.4 °F 31% 30.17 in 10.0 mi SSE 3.5 mph - N/A   Clear
8:35 PM 28.4 °F 21.2 °F 1.4 °F 31% 30.18 in 10.0 mi SSE 6.9 mph - N/A   Clear
8:55 PM 26.6 °F 17.5 °F 3.2 °F 37% 30.18 in 10.0 mi SE 9.2 mph - N/A   Clear
9:15 PM 26.6 °F 18.2 °F 3.2 °F 37% 30.18 in 10.0 mi SSE 8.1 mph - N/A   Clear
9:35 PM 26.6 °F 19.1 °F 3.2 °F 37% 30.18 in 10.0 mi SE 6.9 mph - N/A   Clear
9:55 PM 24.8 °F 16.1 °F 3.2 °F 40% 30.18 in 10.0 mi SE 8.1 mph - N/A   Clear
10:15 PM 24.8 °F 16.1 °F 3.2 °F 40% 30.18 in 10.0 mi SSE 8.1 mph - N/A   Clear
10:35 PM 24.8 °F 16.9 °F 5.0 °F 43% 30.18 in 10.0 mi SE 6.9 mph - N/A   Clear
10:55 PM 24.8 °F 16.9 °F 5.0 °F 43% 30.19 in 10.0 mi SE 6.9 mph - N/A   Clear
11:15 PM 24.8 °F 16.9 °F 3.2 °F 40% 30.19 in 10.0 mi SE 6.9 mph - N/A   Clear
11:35 PM 24.8 °F 16.9 °F 5.0 °F 43% 30.19 in 10.0 mi SE 6.9 mph - N/A   Clear
11:55 PM 24.8 °F 16.1 °F 5.0 °F 43% 30.19 in 10.0 mi SE 8.1 mph - N/A   Clear